EHI
0 0 0 0 0 0 0 0 0 0 1 5 7 8 7 4 3 4 4 6 12 14 15 25 38 45 47 44 38 32 27 23 19 19 20 21 20 19 16 11 6 5 5 4 3 4 3 3 4
0 0 0 0 0 0 0 0 0 0 2 7 9 9 8 5 4 6 7 11 16 15 13 22 36 43 45 43 38 33 29 25 21 19 19 19 19 18 16 12 7 5 4 3 2 2 3 3 3
0 0 0 0 0 0 0 0 0 0 4 9 12 11 9 7 7 9 12 17 19 16 14 23 36 41 42 40 36 33 30 27 24 20 19 18 17 15 14 11 8 5 3 2 1 1 2 3 3
0 0 0 0 0 0 0 0 0 0 4 11 16 15 11 9 11 15 18 19 18 13 12 22 33 38 38 36 33 31 28 26 24 21 19 19 18 15 12 10 8 5 3 1 1 2 3 3 4
0 0 0 0 0 0 0 0 0 0 4 12 18 19 14 14 19 24 23 21 17 11 9 17 30 35 34 32 32 31 27 24 22 21 20 19 18 17 14 10 7 5 4 2 1 2 3 3 3
0 0 0 0 0 0 0 0 0 2 6 14 18 18 16 18 24 25 24 23 20 15 13 19 28 31 29 28 30 30 27 24 23 23 22 20 19 19 18 14 9 7 6 5 3 2 2 2 3
0 0 0 0 0 0 0 0 1 4 10 16 18 17 16 19 23 23 23 25 22 19 20 25 26 24 21 21 24 25 26 24 24 24 24 23 21 20 20 18 15 12 10 8 6 4 3 3 4
0 0 0 0 0 0 0 1 3 7 12 16 17 14 13 17 23 25 24 23 20 17 20 24 24 19 17 18 18 20 24 26 25 25 24 24 21 17 17 19 18 16 14 12 10 8 6 6 6
0 0 0 0 0 0 1 2 4 8 12 14 15 15 15 20 26 27 24 20 15 13 15 19 21 19 18 17 16 17 21 23 23 22 22 21 18 14 14 16 17 16 16 16 14 12 10 9 8
0 0 0 0 0 0 1 3 6 10 12 13 15 19 22 25 27 23 19 16 13 12 13 14 16 17 17 15 15 16 17 18 17 16 16 16 15 14 14 14 15 15 15 16 16 16 14 13 12
0 0 0 0 0 1 2 4 7 12 15 17 19 23 25 25 22 18 15 14 14 14 12 10 11 12 13 14 14 14 15 15 14 13 12 12 13 14 14 14 13 13 13 14 15 16 17 16 15
0 0 0 0 0 1 3 5 9 13 17 20 21 22 22 20 17 16 16 16 17 16 14 10 9 10 11 13 15 15 16 16 14 12 11 11 12 13 13 13 11 10 10 11 13 14 16 15 14
0 0 1 0 0 1 3 5 7 10 15 19 19 18 17 16 16 18 20 20 20 19 17 13 11 10 11 13 14 15 15 14 13 12 11 11 12 12 12 12 11 11 11 11 11 12 13 13 13
0 0 0 0 0 1 1 3 5 8 11 14 15 15 15 16 19 22 21 19 19 19 17 14 12 11 12 13 12 10 9 11 12 12 11 11 12 12 11 10 11 13 14 13 12 12 12 12 12
0 0 0 0 0 0 0 1 3 6 7 8 11 13 15 17 20 20 17 15 16 16 14 12 10 9 10 11 11 8 7 8 10 10 11 12 12 12 11 10 11 12 14 14 13 12 11 10 9
0 0 0 0 0 0 0 0 2 6 6 6 8 11 14 16 16 14 12 10 11 11 11 11 10 8 7 9 10 8 7 8 9 8 9 10 11 11 11 11 11 11 12 12 11 10 9 7 6
0 0 0 0 0 0 0 0 2 6 7 7 9 10 13 14 12 9 8 8 7 7 8 9 10 9 8 9 9 7 6 7 8 7 8 8 10 10 11 11 11 10 9 8 8 8 6 4 3
0 0 0 0 0 0 0 0 2 5 7 7 7 9 11 12 9 7 6 6 6 6 7 8 9 11 11 11 10 7 4 4 6 7 7 7 8 9 9 9 9 10 9 7 6 6 4 2 1
0 0 0 0 0 0 1 1 2 4 6 6 5 7 10 11 8 7 6 6 7 7 8 8 8 10 12 11 10 7 4 3 4 6 6 6 7 7 7 7 8 9 10 7 5 4 3 1 0
0 0 0 0 0 1 2 3 5 6 6 6 6 8 10 11 9 9 10 11 10 10 10 10 9 10 11 11 9 6 4 4 5 5 5 5 5 5 6 6 7 8 9 7 4 3 2 1 0
0 0 0 0 0 1 2 3 4 5 5 6 7 8 11 13 12 14 16 16 15 14 12 12 10 9 9 10 8 6 6 6 6 5 5 5 4 5 6 7 7 8 8 6 3 2 1 0 0
0 0 0 0 0 0 1 1 2 2 3 5 6 7 10 14 15 17 19 19 15 13 12 11 9 8 8 8 8 7 7 6 5 5 5 4 3 3 5 7 8 9 8 4 1 1 0 0 0
0 0 0 0 0 0 0 1 0 1 3 5 5 6 9 12 15 17 18 17 12 9 9 8 6 6 6 6 6 8 8 7 5 5 5 4 2 3 5 7 7 8 7 3 1 0 0 0 0
0 0 0 0 0 0 0 0 0 1 3 5 5 6 7 9 11 12 13 12 8 6 6 5 4 4 4 4 5 7 8 7 6 6 4 3 3 3 5 6 7 6 5 3 1 0 0 0 0
0 0 0 0 0 0 0 0 0 1 3 5 6 6 5 6 7 8 8 8 7 6 6 5 4 3 3 3 4 5 6 6 6 5 3 2 3 3 4 5 5 5 4 3 2 1 0 0 0
0 0 0 0 0 0 0 0 0 1 3 5 6 6 5 4 5 6 5 6 6 7 7 6 4 3 3 3 3 4 4 4 4 3 1 1 2 3 3 3 3 2 2 3 2 1 1 0 0
0 0 0 0 0 0 0 0 0 1 3 4 5 4 3 2 3 3 2 3 5 6 6 6 5 4 3 1 1 3 3 3 2 1 0 1 2 3 2 2 1 0 1 1 2 2 2 1 1
0 0 0 0 0 0 0 0 0 1 2 3 2 1 1 0 1 1 1 2 3 4 5 4 3 3 2 1 1 2 3 2 1 0 0 1 2 3 2 1 0 0 0 0 1 2 2 2 2
0 0 0 0 0 0 0 0 0 0 1 1 0 0 0 0 0 0 0 2 3 3 3 1 1 1 1 0 1 1 1 1 0 0 0 1 3 2 1 0 0 0 0 0 0 1 1 1 2
0 0 0 0 0 0 0 0 0 0 0 0 1 1 1 0 0 0 0 1 3 3 1 0 0 0 0 0 0 1 0 0 0 0 1 2 3 2 1 0 0 0 0 0 0 0 0 0 1
Wind_Speed
3 2 1 3 5 4 3 4 3 3 2 3 7 8 7 5 4 5 2 10 13 12 10 13 15 14 13 13 12 12 12 12 12 12 12 12 11 11 11 11 10 9 9 9 8 7 6 5 4
2 2 2 4 4 1 5 4 2 1 4 6 8 9 8 5 5 8 6 10 13 13 9 10 15 14 13 13 12 12 12 12 11 11 11 11 10 10 10 9 9 8 8 7 7 6 5 4 4
2 1 3 4 2 3 4 3 2 2 4 4 5 5 5 5 6 6 7 13 12 11 8 11 15 14 13 13 12 12 12 11 11 11 10 10 10 9 9 8 8 7 7 6 6 5 5 4 4
1 3 4 3 3 5 5 5 3 2 3 3 5 6 4 3 4 8 12 13 12 9 8 10 15 14 13 13 12 12 11 11 10 10 10 10 9 9 8 8 7 7 6 6 6 6 5 5 5
3 4 3 2 4 5 4 4 2 1 2 4 6 6 4 4 11 14 13 12 11 8 6 8 13 13 12 12 12 12 11 10 10 10 9 9 8 8 8 8 7 7 7 6 6 6 6 6 6
3 4 3 2 4 4 3 2 0 2 4 4 5 6 3 4 11 11 12 10 10 10 7 7 11 12 11 11 11 11 10 10 9 9 9 8 8 8 8 8 7 7 7 7 7 7 7 7 7
3 3 2 3 3 5 4 1 1 4 4 2 4 6 4 4 7 9 10 10 9 8 7 5 5 7 10 10 10 10 10 10 9 9 8 8 8 8 8 8 8 8 8 8 8 8 8 8 9
4 3 1 2 2 4 4 2 1 3 3 3 4 7 6 6 7 8 9 9 8 6 6 5 4 4 4 5 8 9 9 9 8 8 8 8 8 8 9 8 8 9 9 9 9 9 9 9 10
3 3 2 4 3 4 2 1 3 3 5 4 4 5 8 11 9 9 8 7 6 5 3 4 4 3 3 4 6 6 7 7 7 6 7 6 3 4 5 8 10 10 10 10 10 10 9 9 10
4 3 7 6 4 2 1 1 1 4 6 5 6 8 10 10 9 9 7 6 5 5 3 3 4 4 3 3 3 2 3 3 3 3 3 3 2 3 5 7 10 10 10 10 10 10 10 7 4
4 6 6 4 4 2 2 1 2 6 5 6 8 10 9 9 8 8 7 6 5 4 4 3 3 3 3 2 2 2 2 2 2 3 3 2 2 2 3 2 4 5 6 4 5 5 4 3 3
2 5 4 3 2 0 2 2 4 4 4 6 9 10 9 8 6 6 6 5 4 4 3 3 2 2 2 2 1 2 2 2 2 3 3 3 2 2 2 2 2 2 2 2 2 2 3 4 5
2 4 3 3 2 3 5 4 4 4 5 7 8 9 8 8 6 5 5 5 4 3 3 3 3 2 1 2 1 1 1 2 2 2 3 3 2 2 2 2 2 2 2 2 2 3 4 4 4
3 2 3 2 1 2 5 3 4 2 5 6 8 7 7 7 7 6 5 4 3 2 2 2 3 3 2 1 1 1 2 2 1 1 2 3 2 2 2 2 2 2 2 3 3 3 3 3 3
1 2 5 3 1 2 5 2 3 4 5 6 6 7 7 6 6 6 5 5 4 3 2 3 3 3 2 2 1 1 1 1 1 1 2 2 2 2 2 2 2 2 2 2 2 2 2 2 2
3 3 2 5 1 2 6 2 3 3 7 5 5 7 6 5 5 5 5 4 3 3 3 3 3 3 2 1 1 0 0 1 1 1 1 2 2 2 2 2 2 2 2 1 2 1 1 2 2
3 1 3 5 1 2 5 3 4 4 7 5 4 6 6 5 3 3 4 5 3 3 3 3 2 2 2 1 1 1 1 0 0 1 1 1 2 1 1 2 2 2 1 1 2 1 2 2 2
4 3 2 3 2 3 4 3 3 3 6 5 4 5 5 5 4 4 3 4 4 3 3 2 2 1 2 1 2 1 1 1 1 1 1 1 1 1 1 1 2 1 1 1 1 2 1 2 2
4 2 3 5 2 3 4 3 2 3 3 3 3 4 4 3 2 3 4 4 4 3 3 2 2 0 1 1 1 1 1 1 1 1 1 1 1 1 1 1 2 1 2 2 2 2 2 2 1
3 2 4 3 1 3 4 2 1 2 3 4 4 4 4 2 2 3 3 3 3 3 3 3 1 1 1 1 1 1 1 1 1 1 1 2 2 1 1 1 2 2 2 2 2 2 1 2 1
3 4 4 3 1 3 4 3 1 1 0 2 2 3 4 5 4 3 3 3 3 3 3 3 1 1 1 1 1 1 2 2 2 2 2 2 2 2 2 2 2 2 2 2 2 2 2 2 2
4 5 3 1 2 1 2 1 2 1 2 2 1 3 3 3 2 2 2 2 2 2 2 2 2 1 0 1 1 1 0 1 2 2 2 3 2 2 2 1 1 2 1 2 3 2 2 2 2
5 3 1 1 2 2 2 3 3 1 1 2 1 1 2 3 3 2 2 3 2 2 2 2 1 0 0 0 1 1 0 1 2 2 2 2 2 2 2 1 1 1 1 2 3 3 2 2 2
3 5 6 5 5 2 2 3 2 2 3 1 0 2 2 3 3 2 1 2 2 2 2 2 2 0 0 0 0 1 1 2 2 2 2 2 2 2 3 2 2 2 2 2 2 2 2 2 2
5 7 5 5 4 3 1 3 3 3 1 3 3 3 2 3 2 2 2 2 1 1 1 1 1 0 1 1 1 1 2 2 2 2 2 2 2 2 3 2 2 2 2 2 2 2 2 2 2
1 7 6 3 3 3 2 1 2 2 1 3 3 3 3 2 2 1 1 2 2 2 1 1 1 1 1 1 2 2 2 1 2 2 2 2 2 3 3 2 3 3 3 2 1 1 2 2 2
2 1 5 6 1 1 1 0 2 1 2 2 2 2 2 2 2 1 1 2 2 1 1 1 1 1 2 1 1 1 2 1 2 2 2 2 2 2 2 2 2 2 2 2 1 1 2 2 2
3 4 5 4 2 1 2 1 3 2 1 1 1 1 2 1 1 1 1 2 1 1 0 0 0 1 1 1 1 1 2 2 2 1 2 2 2 2 2 2 2 2 2 2 1 2 2 2 2
3 3 4 3 4 4 2 4 3 5 4 3 2 2 2 1 1 1 1 1 2 2 2 1 1 1 1 2 2 2 2 1 0 1 2 1 1 1 1 1 2 2 2 2 2 2 2 2 3
2 2 5 3 1 3 3 4 2 4 3 3 2 1 2 2 2 2 2 2 2 2 1 1 1 1 2 2 1 2 1 1 1 1 1 1 1 1 1 1 2 2 2 2 2 3 3 2 2
Wind_Direction
221 211 121 67 52 45 266 257 261 330 30 60 88 94 93 83 122 141 150 141 138 143 149 147 143 140 137 134 132 130 130 129 127 126 125 125 127 128 131 133 136 138 140 142 145 147 149 149 149
209 180 73 63 82 32 277 265 279 270 136 105 87 87 80 67 90 116 126 143 140 142 145 147 145 142 140 138 138 137 137 135 134 134 134 134 136 136 138 141 145 148 150 152 154 159 164 167 173
240 162 91 73 108 191 249 284 322 13 119 104 98 78 89 115 120 135 145 144 138 141 144 151 146 144 143 144 145 145 145 142 142 142 142 143 145 145 147 151 154 158 162 165 169 173 180 187 195
85 54 55 75 258 242 229 268 295 25 42 50 92 79 76 90 119 131 134 136 134 138 145 152 147 147 147 149 151 151 150 149 150 150 150 151 153 156 160 164 167 170 175 184 190 191 192 202 213
68 78 55 341 264 267 268 266 278 113 71 58 81 91 62 37 106 121 130 132 133 134 141 150 149 150 151 153 156 156 155 154 155 157 159 161 163 166 171 175 180 184 190 199 202 205 207 215 223
55 74 88 263 272 273 273 281 134 96 95 96 94 99 75 98 113 128 127 128 132 139 140 143 150 152 155 157 158 159 159 159 161 164 168 171 173 178 183 189 194 196 201 210 216 222 223 227 234
118 107 184 228 274 289 283 286 95 116 103 111 123 103 110 107 120 129 125 121 120 128 133 136 147 153 158 159 160 162 164 165 168 173 176 180 182 188 195 201 205 207 211 219 226 231 232 236 242
158 106 327 285 272 281 303 358 45 95 101 91 101 119 146 156 131 119 113 111 115 118 129 135 140 142 151 161 168 169 170 172 175 179 185 190 197 203 208 211 217 219 222 226 232 236 240 244 247
127 80 258 245 236 259 310 31 7 65 96 72 78 104 141 138 122 108 104 103 112 119 127 134 138 145 150 163 173 172 175 178 181 188 193 197 209 214 218 222 226 228 229 233 238 242 246 250 253
128 163 228 220 218 210 193 139 130 87 80 76 78 88 119 123 118 116 119 125 131 137 143 142 143 148 155 174 166 166 180 178 177 187 197 197 205 223 224 232 234 238 239 241 245 248 249 250 253
170 196 229 250 239 171 159 115 75 112 100 128 126 122 123 117 116 127 137 143 144 146 147 152 156 152 158 163 159 173 179 181 191 205 204 206 210 225 229 229 243 246 248 247 253 254 247 239 237
208 241 220 232 217 129 143 121 83 89 141 139 136 129 118 115 119 129 137 136 137 133 135 141 140 143 157 143 158 170 176 182 195 213 211 202 208 219 223 222 229 229 234 237 240 245 250 248 244
258 259 254 231 148 135 104 99 109 107 128 125 123 116 118 118 116 114 125 123 126 130 133 141 130 119 122 122 162 161 189 189 198 210 215 205 201 215 219 221 218 224 222 225 229 236 245 248 248
246 287 311 284 131 140 126 120 104 159 142 126 123 124 122 121 125 127 124 118 121 124 128 131 132 125 124 138 159 172 188 189 190 207 219 215 211 218 217 230 221 225 222 224 227 236 240 247 246
276 355 335 321 248 191 122 69 149 186 132 123 126 125 122 115 122 131 137 135 138 142 128 121 126 115 121 145 162 169 188 166 171 203 218 222 227 226 217 225 229 232 233 234 244 253 247 259 264
358 30 326 286 243 184 122 190 237 166 133 136 137 131 126 124 131 135 132 128 128 122 105 102 100 105 104 114 136 122 115 129 179 219 232 235 240 231 229 232 241 243 245 237 237 242 241 255 261
4 298 260 287 260 141 129 187 231 165 145 151 146 138 141 140 138 140 137 135 137 136 123 109 90 107 109 99 87 81 55 78 214 225 235 234 247 243 219 235 247 245 247 254 257 247 226 250 266
247 250 265 260 255 124 129 174 186 175 154 154 146 145 148 149 170 159 145 140 137 131 127 120 106 113 114 84 58 38 22 338 305 275 264 263 255 244 213 236 253 243 236 254 254 259 258 244 255
213 229 272 267 229 120 139 154 191 169 135 138 143 150 152 158 162 139 139 141 121 111 107 102 91 133 113 93 82 49 329 304 305 274 261 273 266 256 251 275 268 250 228 235 241 246 259 261 258
206 238 273 282 242 128 111 105 153 136 159 162 159 155 152 131 110 123 126 123 123 122 114 101 103 121 117 135 168 183 215 249 243 299 297 286 276 274 282 268 262 259 256 267 265 255 242 260 226
226 213 230 238 2 76 102 31 52 333 35 66 74 114 137 136 144 139 132 126 120 128 137 122 124 114 120 109 75 38 25 6 1 339 317 300 288 279 278 277 272 268 250 257 259 244 215 249 262
245 232 211 199 80 288 139 158 304 294 338 348 46 82 102 103 117 124 120 112 122 145 132 122 131 119 111 106 115 121 104 294 274 267 278 298 299 298 290 286 284 275 264 266 266 247 226 215 254
216 223 179 155 115 38 13 107 293 331 324 321 352 90 106 131 128 134 144 146 143 137 133 128 110 110 92 94 140 135 246 267 281 289 295 301 304 301 296 282 276 285 277 276 272 259 236 214 220
144 47 35 48 67 36 285 124 276 269 247 215 168 126 143 144 142 124 116 128 130 130 127 123 126 180 231 170 111 151 225 269 303 307 298 295 294 293 292 285 281 280 270 267 267 268 254 232 221
76 76 37 9 14 273 283 102 243 263 230 141 156 161 145 131 130 121 104 111 120 126 132 142 143 241 260 229 249 240 235 232 251 271 270 278 291 290 284 287 280 275 277 275 273 271 269 255 243
137 125 146 182 222 278 360 132 250 277 102 103 116 126 111 122 131 149 150 144 143 147 150 166 189 259 268 242 250 260 259 246 254 258 259 265 256 258 269 285 285 277 281 294 278 268 258 261 258
106 139 163 137 126 55 313 22 305 23 73 82 107 114 132 135 133 147 142 145 141 142 178 189 202 281 280 268 263 276 267 255 259 264 267 271 268 276 294 307 312 292 281 283 279 279 274 271 262
129 143 81 91 122 306 300 261 246 231 218 207 183 177 170 133 107 97 135 147 145 142 135 351 282 284 287 279 265 269 256 249 248 277 297 284 285 289 308 325 331 329 329 323 313 291 288 286 279
11 53 89 104 142 149 238 272 238 195 198 190 211 186 157 114 102 99 98 90 83 64 48 20 346 334 327 308 290 289 289 295 325 315 285 276 289 297 313 330 348 345 337 336 336 303 297 285 286
125 133 129 134 217 156 163 263 277 175 178 156 152 112 100 97 91 88 88 94 85 73 36 2 324 309 290 295 299 301 302 347 7 303 291 298 314 329 358 22 13 349 344 340 333 323 327 315 311